Regional Weather Roundup
Issued by NWS

Current Version | Previous Version | Graphics & Text | Print | Product List | Glossary On
Versions: 1 2 3 4 5 6 7 8 9 10 11 12 13 14 15 16 17 18 19 20 21 22 23 24 25 26 27 28 29 30 31 32 33 34 35 36 37 38 39 40 41 42 43 44 45 46 47 48 49 50
000
ASUS42 KFFC 070003
RWRGA
WEATHER ROUNDUP FOR GEORGIA
NATIONAL WEATHER SERVICE PEACHTREE CITY GA
700 PM EST SAT MAR 06 2021

NOTE: "FAIR" INDICATES FEW OR NO CLOUDS BELOW 12,000 FEET WITH NO
SIGNIFICANT WEATHER AND/OR OBSTRUCTIONS TO VISIBILITY.

* = USE WITH CAUTION. THE STATIONS MARKED WITH AN ASTERISK MAY NOT
REPORT WEATHER SUCH AS PRECIPITATION, FOG, OR THUNDER AND ARE NOT
QUALITY CONTROLLED BY NWS.

THE REMARK "TC" DENOTES TEMPERATURE READING IN DEGREES CELSIUS.

GAZ001>058-070100-
NORTH GEORGIA

CITY           SKY/WX    TMP DP  RH WIND       PRES   REMARKS
ATLANTA        PTCLDY    50  28  42 W3        30.16S
6HR MIN TEMP:  49; 6HR MAX TEMP:  54;

ATHENS         CLEAR     46  33  60 S3        30.15R
6HR MIN TEMP:  46; 6HR MAX TEMP:  54;

CHAMBLEE       CLEAR     50  31  48 W6        30.15R
6HR MIN TEMP:  47; 6HR MAX TEMP:  53;

PEACHTREE CITY CLEAR     47  33  58 CALM      30.17S
6HR MIN TEMP:  47; 6HR MAX TEMP:  56;

ROME           CLEAR     52  17  25 N6        30.17R
6HR MIN TEMP:  51; 6HR MAX TEMP:  60;

WEST ATLANTA   CLEAR     51  31  46 CALM      30.16R
6HR MIN TEMP:  49; 6HR MAX TEMP:  55;

GAINESVILLE    CLEAR     50  29  44 SW6       30.14R
6HR MIN TEMP:  47; 6HR MAX TEMP:  53;



CITY           SKY/WX    TMP DP  RH WIND       PRES   REMARKS
DALTON*        CLEAR     52   7  16 N5        30.20R
LAWRENCEVILLE* CLEAR     48  29  47 SW6       30.14S
MARIETTA       PTCLDY    51  23  33 NW7       30.15R
KENNESAW*      CLEAR     51  23  33 VRB5      30.17R
CANTON*        CLEAR     50  16  25 NW8       30.16R
BLAIRSVILLE*   CLEAR     45  12  26 NW6       30.16R
$$

GAZ059>098-102>109-070100-
CENTRAL GEORGIA

CITY           SKY/WX    TMP DP  RH WIND       PRES   REMARKS
AUGUSTA-BUSH   PTCLDY    47  32  56 CALM      30.17R
6HR MIN TEMP:  47; 6HR MAX TEMP:  56;

AUGUSTA-DANIEL PTCLDY    47  33  58 CALM      30.17R
6HR MIN TEMP:  47; 6HR MAX TEMP:  53;

COLUMBUS       CLOUDY    58  30  34 NE8       30.14R
6HR MIN TEMP:  58; 6HR MAX TEMP:  64;

MACON          CLEAR     52  30  43 NE5       30.15R
6HR MIN TEMP:  50; 6HR MAX TEMP:  60;

ROBINS AFB     PTCLDY    53  31  42 E3        30.14R


CITY           SKY/WX    TMP DP  RH WIND       PRES   REMARKS
LAGRANGE*      CLEAR     52  25  34 NE3       30.17R
SYLVANIA*      MOCLDY    50  34  52 CALM      30.17R
MILLEDGEVILLE* MOCLDY    55  36  47 CALM      30.17R
$$

GAZ099>101-110>166-070100-
SOUTH GEORGIA

CITY           SKY/WX    TMP DP  RH WIND       PRES   REMARKS
SAVANNAH       CLOUDY    51  34  52 NE6       30.16R
6HR MIN TEMP:  51; 6HR MAX TEMP:  56;

VALDOSTA       MOCLDY    53  41  63 E5        30.13R
6HR MIN TEMP:  53; 6HR MAX TEMP:  58; 6HR PCP: TRACE;

ALMA           CLOUDY    52  38  58 NE6       30.14R
6HR MIN TEMP:  52; 6HR MAX TEMP:  58;

ST SIMONS      CLOUDY    51  42  71 N10       30.13R
6HR MIN TEMP:  51; 6HR MAX TEMP:  53; 6HR PCP:  0.01;

FT STEWART     CLOUDY    50  38  64 N3        30.12S
ALBANY         MOCLDY    58  39  49 N6        30.14R
HUNTER AFB     CLOUDY    50  34  53 CALM      30.12S
MOODY AFB      CLOUDY    52  40  63 NE3       30.12R
BRUNSWICK      CLOUDY    49  39  69 N7        30.14S


CITY           SKY/WX    TMP DP  RH WIND       PRES   REMARKS
BAINBRIDGE*    PTCLDY    54  44  68 E8        30.11R
MOULTRIE*      PTCLDY    54  45  71 CALM      30.12R
VIDALIA*       MOCLDY    52  32  46 NE5       30.16R
WAYCROSS*      CLOUDY    51  41  68 SE5       30.14R
DOUGLAS*       CLOUDY    53  38  58 CALM      30.15R
$$



USA.gov is the U.S. government's official web portal to all federal, state and local government web resources and services.